[Date Prev][Date Next][Thread Prev][Thread Next] - [Date Index][Thread Index][Author Index]
MIR & ISS Keps 6-10
- Subject: [sarex] MIR & ISS Keps 6-10
- From: "Dr Dave Larsen [ PhD ]" <doc@xxxxxxxxxxx>
- Date: Thu, 10 Jun 1999 08:30:17 -0700
MIR
1 16609U 86017A 99161.10416010 .00032386 00000-0 23954-3 0 5616
2 16609 51.6634 20.2691 0006886 207.2337 152.8226 15.72612938760295
ISS
1 25544U 98067A 99161.47092071 .00026352 00000-0 34037-3 0 6766
2 25544 51.5936 231.6162 0011823 330.2684 29.7535 15.58694125 31554
----
Via the sarex mailing list at AMSAT.ORG courtesy of AMSAT-NA.
To unsubscribe, send "unsubscribe sarex" to Majordomo@amsat.org
AMSAT Home